Regional Weather Roundup
Issued by NWS State College, PA

Home | Current Version | Previous Version | Graphics & Text | Print | Product List | Glossary Off
Versions: 1 2 3 4 5 6 7 8 9 10 11 12 13 14 15 16 17 18 19 20 21 22 23 24 25 26 27 28 29 30 31 32 33 34 35 36 37 38 39 40 41 42 43 44 45 46 47 48 49 50

000
ASUS41 KCTP 291110
RWRCTP

REGIONAL WEATHER ROUNDUP
NATIONAL WEATHER SERVICE STATE COLLEGE PA
700 AM EDT FRI AUG 29 2014

Note: "fair" indicates few or no clouds below 12,000 feet with no
significant weather and/or obstructions to visibility.

* = STATION THAT DOES NOT REPORT PRECIPITATION /E.G. RAIN...SNOW...ETC/
    THUNDER OR FOG.

PAZ002>004-007>009-013>016-020>023-029>032-291200-
WESTERN PENNSYLVANIA

CITY           SKY/WX    TMP DP  RH WIND       PRES   REMARKS
ERIE           PTCLDY    55  48  77 CALM      30.18R
MEADVILLE      PTCLDY    51  47  86 E5        30.19R
FRANKLIN*      CLOUDY    46  43  87 CALM      30.22R VSB<1/4
NEW CASTLE     FAIR      46  46 100 CALM      30.20R FOG
BEAVER COUNTY  CLEAR     52  48  87 CALM      30.18
BUTLER*        CLEAR     46  43  87 NE5       30.19R
PITTSBURGH INT PTCLDY    51  49  92 CALM      30.17R
PITTSBURGH     CLEAR     52  49  89 CALM      30.16R
INDIANA*       CLEAR     48  46  93 E3        30.23R
LATROBE        CLEAR     48  48 100 CALM      30.18R
WASHINGTON CO* CLOUDY    46  43  87 CALM      30.17R VSB 1/4
$$

PAZ004>006-010>012-017>019-024>028-033>037-041-042-045-046-049>053-291200-
CENTRAL PENNSYLVANIA

CITY           SKY/WX    TMP DP  RH WIND       PRES   REMARKS
BRADFORD       PTCLDY    40  38  93 CALM      30.22R
DUBOIS         CLEAR     46  44  93 E7        30.20R
CLEARFIELD     PTCLDY    44  44 100 CALM      30.22R
JOHNSTOWN      CLEAR     50  45  83 CALM      30.20R
ALTOONA        CLEAR     48  47  96 CALM      30.20S FOG
STATE COLLEGE  CLEAR     50  48  93 CALM      30.22R
WILLIAMSPORT   PTCLDY    50  47  89 CALM      30.20R
SELINSGROVE    PTCLDY    49  47  93 CALM      30.21R
FT INDIANTOWN  PTCLDY    51  51  99 NW1       30.19R
CAPITAL CITY   PTCLDY    53  49  86 W5        30.19R
HARRISBURG     MOCLDY    57  51  80 N5        30.18R
YORK           PTCLDY    48  46  93 CALM      30.19R
$$

PAZ038>040-043-044-047-048-054-055-060>062-067>071-291200-
EASTERN PENNSYLVANIA

CITY           SKY/WX    TMP DP  RH WIND       PRES   REMARKS
SCRANTON       PTCLDY    50  47  89 CALM      30.20R
MOUNT POCONO   MOCLDY    49  46  90 CALM      30.19R
ALLENTOWN      PTCLDY    52  48  86 CALM      30.18R
QUAKERTOWN*    MOSUNNY   50  48  93 CALM      30.19R
READING        PTCLDY    53  49  86 CALM      30.18R
LANCASTER      PTCLDY    52  48  86 CALM      30.19R
COATESVILLE    SUNNY     55  54  94 N5        30.19R
POTTSTOWN      PTCLDY    53  49  86 CALM      30.19R
BLUE BELL      CLEAR     52  50  93 CALM      30.18R
DOYLESTOWN     PTCLDY    55  51  86 CALM      30.17R
WILLOW GROVE   NOT AVBL
NORTH PHILA    CLEAR     59  49  69 N6        30.18R
PHILADELPHIA   MOCLDY    62  50  64 N7        30.17R
$$



USA.gov is the U.S. government's official web portal to all federal, state and local government web resources and services.